TimeEST,TemperatureF,Dew PointF,Humidity,Sea Level PressureIn,VisibilityMPH,Wind Direction,Wind SpeedMPH,Gust SpeedMPH,PrecipitationIn,Events,Conditions,WindDirDegrees,DateUTC
12:56 AM,26.1,24.1,92,30.11,-9999.0,SE,6.9,-,0.02,,Unknown,140,2013-11-27 05:56:00
1:56 AM,26.1,25.0,96,30.09,-9999.0,Variable,5.8,-,0.03,,Unknown,0,2013-11-27 06:56:00
2:56 AM,28.0,26.1,92,30.03,-9999.0,SE,9.2,-,0.05,,Unknown,130,2013-11-27 07:56:00
3:56 AM,28.9,28.0,96,29.98,-9999.0,ESE,8.1,-,0.01,,Unknown,120,2013-11-27 08:56:00
4:56 AM,32.0,30.9,96,29.91,-9999.0,ESE,11.5,18.4,0.05,,Unknown,110,2013-11-27 09:56:00
5:56 AM,34.0,32.0,92,29.85,-9999.0,ESE,15.0,21.9,0.10,,Unknown,120,2013-11-27 10:56:00
6:56 AM,37.0,36.0,96,29.76,-9999.0,ESE,16.1,24.2,0.08,,Unknown,120,2013-11-27 11:56:00
7:56 AM,39.0,37.9,96,29.67,-9999.0,SE,12.7,28.8,0.10,,Unknown,130,2013-11-27 12:56:00
8:56 AM,41.0,39.9,96,29.58,-9999.0,ESE,18.4,33.4,0.14,,Unknown,120,2013-11-27 13:56:00
9:56 AM,45.0,44.1,97,29.50,-9999.0,SE,16.1,28.8,0.35,,Unknown,130,2013-11-27 14:56:00
10:56 AM,46.0,45.0,96,29.45,-9999.0,SE,13.8,28.8,0.16,,Unknown,130,2013-11-27 15:56:00
11:56 AM,48.9,48.0,97,29.37,-9999.0,SE,12.7,32.2,0.14,,Unknown,140,2013-11-27 16:56:00
12:56 PM,48.9,48.0,97,29.32,-9999.0,Variable,6.9,16.1,0.04,,Unknown,0,2013-11-27 17:56:00
1:56 PM,50.0,48.9,96,29.29,-9999.0,SE,9.2,17.3,0.05,,Unknown,130,2013-11-27 18:56:00
2:56 PM,50.0,48.9,96,29.27,-9999.0,SSE,6.9,-,0.10,,Unknown,150,2013-11-27 19:56:00
3:56 PM,50.0,50.0,100,29.25,-9999.0,Variable,3.5,-,0.08,,Unknown,0,2013-11-27 20:56:00
4:56 PM,50.0,48.9,96,29.23,-9999.0,Calm,Calm,-,0.09,,Unknown,0,2013-11-27 21:56:00
5:56 PM,42.1,41.0,96,29.21,-9999.0,NNW,12.7,24.2,0.10,,Unknown,340,2013-11-27 22:56:00
6:56 PM,39.0,37.9,96,29.22,-9999.0,NW,11.5,23.0,0.09,,Unknown,320,2013-11-27 23:56:00
7:56 PM,36.0,34.0,93,29.21,-9999.0,NW,18.4,26.5,0.07,,Unknown,320,2013-11-28 00:56:00
8:56 PM,34.0,32.0,92,29.21,-9999.0,NW,15.0,23.0,0.08,,Unknown,320,2013-11-28 01:56:00
9:56 PM,33.1,30.9,92,29.23,-9999.0,NW,9.2,24.2,0.08,,Unknown,310,2013-11-28 02:56:00
10:56 PM,32.0,30.0,92,29.24,-9999.0,NW,12.7,21.9,0.05,,Unknown,310,2013-11-28 03:56:00
11:56 PM,30.9,28.9,92,29.22,-9999.0,NW,16.1,26.5,N/A,,Unknown,320,2013-11-28 04:56:00